N6ZQK Weather Reports


Display with metric or nautical units.
time (UTC)temp
F
wind
direction
speed
MPH
gust
MPH
rain 1hr
in
rain 24hr
in
rain mn
in
humidity
%
barometer
mb
20260510133603 60 99 4.0 10.0 0.00 0.00 0.00 72 1010.1
20260510133003 60 100 4.0 11.0 0.00 0.00 0.00 72 1010.0
20260510132403 60 99 3.0 9.0 0.00 0.00 0.00 72 1009.9
20260510131803 60 101 3.0 7.0 0.00 0.00 0.00 72 1009.9
20260510131203 60 100 2.0 6.0 0.00 0.00 0.00 73 1009.9
20260510130603 60 98 2.0 6.0 0.00 0.00 0.00 73 1009.9
20260510130004 60 98 1.0 5.0 0.00 0.00 0.00 72 1010.0
20260510125403 60 98 1.0 4.0 0.00 0.00 0.00 73 1009.9
20260510124803 60 98 1.0 6.0 0.00 0.00 0.00 74 1009.9
20260510124203 60 98 2.0 6.0 0.00 0.00 0.00 74 1010.0
20260510123603 60 100 2.0 7.0 0.00 0.00 0.00 75 1009.9
20260510123003 60 96 2.0 7.0 0.00 0.00 0.00 75 1010.0
20260510122403 60 99 2.0 7.0 0.00 0.00 0.00 74 1009.9
20260510121803 61 98 3.0 7.0 0.00 0.00 0.00 75 1009.9
20260510121224 61 99 2.0 7.0 0.00 0.00 0.00 75 1010.0
20260510120603 61 101 2.0 8.0 0.00 0.00 0.00 75 1009.9
20260510120003 61 100 2.0 7.0 0.00 0.00 0.00 76 1010.0
20260510115403 61 102 2.0 8.0 0.00 0.00 0.00 76 1010.0
20260510114803 61 101 3.0 9.0 0.00 0.00 0.00 76 1009.9
20260510114203 61 101 3.0 9.0 0.00 0.00 0.00 76 1010.0
20260510113603 61 98 4.0 9.0 0.00 0.00 0.00 77 1010.0
20260510113003 61 93 3.0 9.0 0.00 0.00 0.00 77 1009.9
20260510112403 61 94 3.0 8.0 0.00 0.00 0.00 77 1010.0
20260510111803 61 92 3.0 8.0 0.00 0.00 0.00 77 1010.0
20260510111224 61 99 3.0 8.0 0.00 0.00 0.00 78 1010.1
20260510110603 61 103 3.0 11.0 0.00 0.00 0.00 79 1010.0
20260510110003 62 100 3.0 11.0 0.00 0.00 0.00 79 1010.1
20260510105403 62 98 3.0 9.0 0.00 0.00 0.00 78 1010.1
20260510104803 62 96 3.0 12.0 0.00 0.00 0.00 78 1010.1
20260510104224 62 97 4.0 10.0 0.00 0.00 0.00 78 1010.0
20260510103603 62 103 3.0 9.0 0.00 0.00 0.00 79 1010.0
20260510103003 62 100 4.0 9.0 0.00 0.00 0.00 79 1010.1
20260510102403 62 99 4.0 9.0 0.00 0.00 0.00 79 1010.1
20260510101803 62 99 3.0 9.0 0.00 0.00 0.00 79 1010.0
20260510101224 62 100 4.0 9.0 0.00 0.00 0.00 80 1010.0
20260510100603 62 98 3.0 9.0 0.00 0.00 0.00 80 1010.1
20260510100003 62 98 3.0 8.0 0.00 0.00 0.00 80 1009.9
20260510095403 62 97 2.0 8.0 0.00 0.00 0.00 81 1009.9
20260510094803 62 99 2.0 7.0 0.00 0.00 0.00 81 1009.9
20260510094203 62 103 3.0 12.0 0.00 0.00 0.00 81 1009.9
20260510093603 62 102 3.0 9.0 0.00 0.00 0.00 81 1009.8
20260510093024 62 104 3.0 9.0 0.00 0.00 0.00 81 1009.9
20260510092403 62 106 2.0 8.0 0.00 0.00 0.00 81 1009.9
20260510091803 62 108 2.0 8.0 0.00 0.00 0.00 80 1009.8
20260510091203 62 108 1.0 5.0 0.00 0.00 0.00 80 1009.8
20260510090624 62 108 1.0 5.0 0.00 0.00 0.00 80 1009.9
20260510090003 63 109 1.0 5.0 0.00 0.00 0.00 80 1009.9
20260510085403 63 109 1.0 6.0 0.00 0.00 0.00 80 1009.9
20260510084803 63 109 1.0 6.0 0.00 0.00 0.00 80 1009.8
20260510084203 63 110 2.0 6.0 0.00 0.00 0.00 80 1009.8
20260510083603 63 113 2.0 7.0 0.00 0.00 0.00 80 1009.8
20260510083003 63 124 2.0 7.0 0.00 0.00 0.00 80 1009.9
20260510082403 63 130 1.0 6.0 0.00 0.00 0.00 80 1009.9
20260510081803 63 131 1.0 6.0 0.00 0.00 0.00 80 1009.9
20260510081203 63 132 1.0 6.0 0.00 0.00 0.00 80 1010.0
20260510080603 63 132 1.0 5.0 0.00 0.00 0.00 80 1010.0
20260510080024 63 134 1.0 5.0 0.00 0.00 0.00 80 1010.0
20260510075403 63 155 1.0 5.0 0.00 0.00 0.00 80 1010.0
20260510074803 63 182 1.0 5.0 0.00 0.00 0.00 80 1010.0
20260510074224 63 224 0.0 3.0 0.00 0.00 0.00 79 1010.2
20260510073603 63 225 0.0 3.0 0.00 0.00 0.00 79 1010.1
20260510073003 63 226 0.0 2.0 0.00 0.00 0.00 79 1010.1
20260510072403 63 226 0.0 3.0 0.00 0.00 0.00 79 1010.2
20260510071803 63 0 0.0 0.0 0.00 0.00 0.00 80 1010.2
20260510071224 64 0 0.0 0.0 0.00 0.00 0.00 79 1010.3
20260510070603 64 226 0.0 1.0 0.00 0.00 0.00 79 1010.3
20260510070004 64 226 0.0 1.0 0.00 0.00 0.00 79 1010.2
20260510065403 64 226 0.0 2.0 0.00 0.00 0.00 79 1010.3
20260510064803 64 226 0.0 2.0 0.00 0.00 0.00 79 1010.3
20260510064203 64 226 0.0 2.0 0.00 0.00 0.00 79 1010.3
20260510063603 64 226 0.0 3.0 0.00 0.00 0.00 79 1010.3
20260510063003 64 226 0.0 2.0 0.00 0.00 0.00 79 1010.2
20260510062403 64 226 0.0 2.0 0.00 0.00 0.00 78 1010.4
20260510061803 64 226 0.0 2.0 0.00 0.00 0.00 77 1010.3
20260510061203 64 226 0.0 2.0 0.00 0.00 0.00 77 1010.3
20260510060603 64 226 0.0 2.0 0.00 0.00 0.00 76 1010.2
20260510060003 64 226 0.0 2.0 0.00 0.00 0.00 76 1010.1
20260510055424 64 226 0.0 2.0 0.00 0.00 0.00 75 1010.2
20260510054803 64 226 0.0 2.0 0.00 0.00 0.00 75 1010.2
20260510054203 64 226 0.0 2.0 0.00 0.00 0.00 75 1010.2
20260510053624 64 226 0.0 2.0 0.00 0.00 0.00 74 1010.3
20260510053003 65 226 0.0 2.0 0.00 0.00 0.00 74 1010.1
20260510052403 65 226 0.0 2.0 0.00 0.00 0.00 73 1010.2
20260510051824 65 226 0.0 2.0 0.00 0.00 0.00 74 1010.2
20260510051203 65 226 0.0 2.0 0.00 0.00 0.00 74 1010.2
20260510050603 65 226 0.0 2.0 0.00 0.00 0.00 74 1010.2
20260510050003 66 226 0.0 2.0 0.00 0.00 0.00 73 1010.1
20260510045403 66 226 0.0 2.0 0.00 0.00 0.00 73 1010.2
20260510044803 66 226 0.0 2.0 0.00 0.00 0.00 73 1010.2
20260510044224 66 226 1.0 2.0 0.00 0.00 0.00 73 1010.1
20260510043624 66 226 0.0 2.0 0.00 0.00 0.00 73 1010.1
20260510043004 66 226 0.0 2.0 0.00 0.00 0.00 73 1010.1
20260510042403 66 226 1.0 2.0 0.00 0.00 0.00 73 1010.1
20260510041803 66 226 1.0 2.0 0.00 0.00 0.00 73 1010.0
20260510041203 66 226 0.0 2.0 0.00 0.00 0.00 73 1010.0
20260510040624 66 226 0.0 2.0 0.00 0.00 0.00 73 1010.1
20260510040003 67 226 0.0 2.0 0.00 0.00 0.00 73 1010.0
20260510035403 67 226 0.0 2.0 0.00 0.00 0.00 72 1009.9
20260510034803 67 226 0.0 2.0 0.00 0.00 0.00 72 1010.0
20260510034203 68 226 0.0 2.0 0.00 0.00 0.00 72 1009.8
20260510033603 68 226 0.0 2.0 0.00 0.00 0.00 71 1009.8
20260510033024 68 226 0.0 2.0 0.00 0.00 0.00 70 1009.8
20260510032403 69 226 1.0 3.0 0.00 0.00 0.00 69 1009.7
20260510031803 69 226 0.0 3.0 0.00 0.00 0.00 69 1009.6
20260510031224 70 226 0.0 3.0 0.00 0.00 0.00 68 1009.7
20260510030603 70 227 1.0 4.0 0.00 0.00 0.00 67 1009.6
20260510030024 71 227 1.0 3.0 0.00 0.00 0.00 66 1009.7
20260510025403 71 227 0.0 3.0 0.00 0.00 0.00 64 1009.6
20260510024803 72 227 0.0 2.0 0.00 0.00 0.00 63 1009.6
20260510024203 72 227 0.0 2.0 0.00 0.00 0.00 62 1009.6
20260510023603 73 227 1.0 5.0 0.00 0.00 0.00 61 1009.5
20260510023003 73 228 1.0 5.0 0.00 0.00 0.00 59 1009.6
20260510022403 73 229 1.0 5.0 0.00 0.00 0.00 58 1009.6
20260510021803 74 226 2.0 7.0 0.00 0.00 0.00 58 1009.6
20260510021203 74 221 2.0 7.0 0.00 0.00 0.00 57 1009.6
20260510020624 74 229 1.0 5.0 0.00 0.00 0.00 58 1009.6
20260510020003 74 238 1.0 6.0 0.00 0.00 0.00 56 1009.6
20260510015403 75 241 1.0 5.0 0.00 0.00 0.00 59 1009.5
20260510014824 75 245 1.0 5.0 0.00 0.00 0.00 57 1009.6
20260510014203 75 263 1.0 5.0 0.00 0.00 0.00 55 1009.6
20260510013603 75 260 1.0 5.0 0.00 0.00 0.00 55 1009.5
20260510013024 76 264 1.0 5.0 0.00 0.00 0.00 55 1009.5
20260510012403 76 258 2.0 6.0 0.00 0.00 0.00 55 1009.5
20260510011803 76 258 1.0 6.0 0.00 0.00 0.00 55 1009.4
20260510011203 76 256 1.0 3.0 0.00 0.00 0.00 54 1009.4
20260510010603 76 250 2.0 6.0 0.00 0.00 0.00 56 1009.4
20260510010024 76 245 3.0 7.0 0.00 0.00 0.00 54 1009.4
20260510005424 76 253 2.0 7.0 0.00 0.00 0.00 55 1009.6
20260510004803 76 268 2.0 7.0 0.00 0.00 0.00 54 1009.5
20260510004203 76 259 2.0 7.0 0.00 0.00 0.00 55 1009.5
20260510003624 76 265 2.0 6.0 0.00 0.00 0.00 55 1009.6
20260510003004 76 242 2.0 7.0 0.00 0.00 0.00 56 1009.6
20260510002403 76 265 2.0 7.0 0.00 0.00 0.00 55 1009.7
20260510001803 76 293 2.0 6.0 0.00 0.00 0.00 54 1009.8
20260510001224 76 300 2.0 8.0 0.00 0.00 0.00 55 1009.8
20260510000603 76 292 3.0 8.0 0.00 0.00 0.00 53 1009.8
20260510000003 76 297 3.0 9.0 0.00 0.00 0.00 55 1009.9
20260509235403 77 300 2.0 9.0 0.00 0.00 0.00 54 1010.0
20260509234824 77 272 1.0 8.0 0.00 0.00 0.00 54 1010.0
20260509234203 77 279 2.0 8.0 0.00 0.00 0.00 54 1010.1
20260509233603 77 258 2.0 8.0 0.00 0.00 0.00 53 1010.1
20260509233003 76 269 2.0 8.0 0.00 0.00 0.00 54 1010.1
20260509232403 77 251 3.0 8.0 0.00 0.00 0.00 53 1010.0
20260509231803 77 247 3.0 7.0 0.00 0.00 0.00 53 1010.0
20260509231203 77 255 4.0 8.0 0.00 0.00 0.00 54 1010.1
20260509230624 77 256 4.0 11.0 0.00 0.00 0.00 54 1010.2
20260509230003 77 271 4.0 11.0 0.00 0.00 0.00 52 1010.2
20260509225403 77 283 3.0 11.0 0.00 0.00 0.00 52 1010.2
20260509224803 77 266 2.0 10.0 0.00 0.00 0.00 52 1010.2
20260509224203 77 259 2.0 8.0 0.00 0.00 0.00 52 1010.4
20260509223603 77 249 2.0 8.0 0.00 0.00 0.00 51 1010.4
20260509223003 77 263 3.0 8.0 0.00 0.00 0.00 52 1010.4
20260509222403 77 272 3.0 7.0 0.00 0.00 0.00 50 1010.5
20260509221803 77 258 1.0 6.0 0.00 0.00 0.00 50 1010.5
20260509221224 77 285 2.0 7.0 0.00 0.00 0.00 51 1010.5
20260509220603 77 271 2.0 8.0 0.00 0.00 0.00 51 1010.6
20260509220003 77 274 1.0 8.0 0.00 0.00 0.00 52 1010.6
20260509215403 77 261 2.0 8.0 0.00 0.00 0.00 53 1010.6
20260509214803 76 254 2.0 6.0 0.00 0.00 0.00 53 1010.6
20260509214203 76 239 3.0 8.0 0.00 0.00 0.00 51 1010.8
20260509213603 77 227 4.0 12.0 0.00 0.00 0.00 53 1010.7
20260509213003 77 232 4.0 12.0 0.00 0.00 0.00 52 1010.8
20260509212403 76 240 2.0 11.0 0.00 0.00 0.00 50 1011.1
20260509211824 76 264 1.0 5.0 0.00 0.00 0.00 54 1011.1
20260509211203 76 255 2.0 8.0 0.00 0.00 0.00 53 1011.0
20260509210625 76 246 2.0 7.0 0.00 0.00 0.00 53 1010.9
20260509210003 76 258 3.0 6.0 0.00 0.00 0.00 51 1010.9
20260509205403 76 251 3.0 6.0 0.00 0.00 0.00 53 1011.0
20260509204804 76 265 1.0 6.0 0.00 0.00 0.00 53 1011.0
20260509204203 76 259 1.0 7.0 0.00 0.00 0.00 48 1010.9
20260509203624 76 267 3.0 8.0 0.00 0.00 0.00 53 1011.0
20260509203003 76 269 3.0 8.0 0.00 0.00 0.00 53 1011.1
20260509202403 76 256 3.0 8.0 0.00 0.00 0.00 54 1011.0
20260509201803 76 246 3.0 8.0 0.00 0.00 0.00 52 1011.1
20260509201203 76 237 3.0 7.0 0.00 0.00 0.00 54 1011.1
20260509200603 75 259 3.0 10.0 0.00 0.00 0.00 54 1011.1
20260509200003 75 264 3.0 8.0 0.00 0.00 0.00 53 1011.2
20260509195424 75 259 2.0 7.0 0.00 0.00 0.00 53 1011.2
20260509194803 75 255 2.0 7.0 0.00 0.00 0.00 55 1011.2
20260509194203 75 246 2.0 7.0 0.00 0.00 0.00 55 1011.2
20260509193603 75 244 3.0 7.0 0.00 0.00 0.00 55 1011.2
20260509193003 74 260 2.0 6.0 0.00 0.00 0.00 54 1011.2
20260509192403 74 251 2.0 10.0 0.00 0.00 0.00 53 1011.4
20260509191803 74 243 2.0 10.0 0.00 0.00 0.00 54 1011.4
20260509191203 74 246 2.0 6.0 0.00 0.00 0.00 54 1011.6
20260509190603 74 245 1.0 5.0 0.00 0.00 0.00 55 1011.5
20260509190003 73 259 0.0 3.0 0.00 0.00 0.00 59 1011.8
20260509185424 73 253 1.0 5.0 0.00 0.00 0.00 57 1011.8
20260509184803 73 279 1.0 6.0 0.00 0.00 0.00 59 1011.7
20260509184203 72 300 1.0 6.0 0.00 0.00 0.00 58 1011.7
20260509183603 72 326 1.0 4.0 0.00 0.00 0.00 58 1011.5
20260509183003 72 321 2.0 6.0 0.00 0.00 0.00 59 1011.7
20260509182403 72 319 2.0 7.0 0.00 0.00 0.00 60 1011.8
20260509181824 72 320 2.0 8.0 0.00 0.00 0.00 57 1011.8
20260509181203 72 309 2.0 8.0 0.00 0.00 0.00 58 1011.9
20260509180603 72 294 2.0 5.0 0.00 0.00 0.00 57 1011.8
20260509180024 72 258 1.0 5.0 0.00 0.00 0.00 59 1011.8
20260509175403 72 176 0.0 2.0 0.00 0.00 0.00 59 1011.7
20260509174803 72 176 0.0 2.0 0.00 0.00 0.00 58 1011.7
20260509174203 73 176 0.0 2.0 0.00 0.00 0.00 58 1011.7
20260509173603 73 171 1.0 6.0 0.00 0.00 0.00 51 1011.7
20260509173003 73 164 1.0 5.0 0.00 0.00 0.00 51 1011.7
20260509172403 73 152 0.0 2.0 0.00 0.00 0.00 51 1011.6
20260509171803 73 134 0.0 4.0 0.00 0.00 0.00 51 1011.6
20260509171203 72 124 1.0 4.0 0.00 0.00 0.00 54 1011.6
20260509170603 72 114 1.0 4.0 0.00 0.00 0.00 50 1011.5
20260509170003 72 102 0.0 4.0 0.00 0.00 0.00 48 1011.6
20260509165403 72 24 0.0 4.0 0.00 0.00 0.00 50 1011.5
20260509164803 71 349 0.0 4.0 0.00 0.00 0.00 54 1011.6
20260509164203 70 91 0.0 2.0 0.00 0.00 0.00 53 1011.6
20260509163603 70 123 0.0 4.0 0.00 0.00 0.00 53 1011.7
20260509163003 69 126 0.0 5.0 0.00 0.00 0.00 53 1011.6
20260509162403 68 125 1.0 5.0 0.00 0.00 0.00 55 1011.8
20260509161803 67 128 1.0 7.0 0.00 0.00 0.00 58 1011.8
20260509161203 66 125 1.0 7.0 0.00 0.00 0.00 60 1011.8
20260509160603 64 105 1.0 5.0 0.00 0.00 0.00 65 1011.7
20260509160024 64 99 1.0 5.0 0.00 0.00 0.00 67 1011.6
20260509155424 63 97 1.0 4.0 0.00 0.00 0.00 70 1011.6
20260509154803 62 101 0.0 4.0 0.00 0.00 0.00 71 1011.7
20260509154203 62 101 0.0 5.0 0.00 0.00 0.00 71 1011.9
20260509153603 62 101 0.0 5.0 0.00 0.00 0.00 71 1011.9
20260509153003 61 101 0.0 2.0 0.00 0.00 0.00 70 1012.0
20260509152424 60 101 0.0 2.0 0.00 0.00 0.00 70 1011.9
20260509151803 60 101 0.0 5.0 0.00 0.00 0.00 69 1012.0
20260509151203 60 101 0.0 5.0 0.00 0.00 0.00 70 1011.9
20260509150603 59 101 0.0 4.0 0.00 0.00 0.00 72 1011.9
20260509150024 59 101 1.0 5.0 0.00 0.00 0.00 72 1011.7
20260509145403 59 101 1.0 5.0 0.00 0.00 0.00 73 1011.6
20260509144803 58 101 1.0 6.0 0.00 0.00 0.00 74 1011.6
20260509144203 58 102 2.0 6.0 0.00 0.00 0.00 73 1011.6
20260509143603 58 103 1.0 6.0 0.00 0.00 0.00 75 1011.6
20260509143003 58 99 1.0 5.0 0.00 0.00 0.00 77 1011.5
20260509142424 58 88 0.0 4.0 0.00 0.00 0.00 79 1011.6
20260509141803 58 63 1.0 4.0 0.00 0.00 0.00 80 1011.6
20260509141203 58 33 1.0 3.0 0.00 0.00 0.00 81 1011.6
20260509140603 58 337 0.0 2.0 0.00 0.00 0.00 80 1011.6
20260509140004 58 0 0.0 0.0 0.00 0.00 0.00 80 1011.6
20260509135403 58 336 1.0 5.0 0.00 0.00 0.00 80 1011.5
20260509134803 58 336 1.0 5.0 0.00 0.00 0.00 77 1011.5
20260509134203 58 336 0.0 2.0 0.00 0.00 0.00 76 1011.4